Stratford, CT

5:16 PM EST on December 07, 2016 (GMT -0500)
Sikorsky Memorial

Weather History for KBDR - July, 2013

Change the Weather History Date:

Tuesday, July 30, 2013

  Actual Average Record
Temperature  
Mean Temperature 74 °F 75 °F  
Max Temperature 83 °F 82 °F 95 °F (1949)
Min Temperature 64 °F 67 °F 54 °F (1956)
Degree Days  
Heating Degree Days 0 0  
Month to date heating degree days 0 0  
Since 1 June heating degree days 18 32  
Since 1 July heating degree days 0 0  
Cooling Degree Days 9 10  
Month to date cooling degree days 418 282  
Year to date cooling degree days 631 449  
Since 1 June cooling degree days 593 425  
Growing Degree Days 23 (Base 50)    
Moisture  
Dew Point 56 °F    
Average Humidity 55    
Maximum Humidity 73    
Minimum Humidity 36    
Precipitation  
Precipitation 0.00 in 0.13 in 3.57 in (1960)
Month to date precipitation 1.59 3.32  
Year to date precipitation 24.67 24.80  
Snow  
Snow 0.00 in 0.00 in 0.00 in (2002)
Month to date snowfall 0.0 0.0  
Since 1 July snowfall 0.0 0.0  
Snow Depth 0.00 in    
Sea Level Pressure  
Sea Level Pressure 30.11 in    
Wind  
Wind Speed 6 mph (WNW)    
Max Wind Speed 15 mph    
Max Gust Speed 20 mph    
Visibility 10 miles    
Events      
T = Trace of Precipitation, MM = Missing Value Source: NWS Daily Summary

Daily Weather History Graph

Daily Weather History Graph

Search for Another Location

Airport or City:

Trip Planner

Search our weather history database for the weather conditions in past years. The results will help you decide how hot, cold, wet, or windy it might be!

Date:

Astronomy

Jul. 30, 2013 Rise Set
Actual Time 5:46 AM EDT 8:10 PM EDT
Civil Twilight 5:15 AM EDT 8:42 PM EDT
Nautical Twilight 4:36 AM EDT 9:20 PM EDT
Astronomical Twilight 3:53 AM EDT 10:03 PM EDT
Moon 12:03 AM EDT (7/30) 2:28 PM EDT (7/30)
Length of Visible Light 15h 26m
Length of Day
14h 24m
Last Quarter, 41% of the Moon is Illuminated
Jul 30
Last Quarter
Aug 6
New
Aug 14
First Quarter
Aug 20
Full
Aug 28
Last Quarter

Hourly Weather History & Observations

Time (EDT) Temp. Heat Index Dew Point Humidity Pressure Visibility Wind Dir Wind Speed Gust Speed Precip Events Conditions
12:52 AM 70.0 °F - 55.9 °F 61% 30.08 in 10.0 mi NW 6.9 mph - N/A   Clear
1:52 AM 69.1 °F - 55.9 °F 63% 30.09 in 10.0 mi North 4.6 mph - N/A   Clear
2:52 AM 68.0 °F - 55.9 °F 65% 30.08 in 10.0 mi North 4.6 mph - N/A   Clear
3:52 AM 66.0 °F - 55.0 °F 68% 30.09 in 10.0 mi Calm Calm - N/A   Clear
4:52 AM 64.0 °F - 55.0 °F 73% 30.12 in 10.0 mi Calm Calm - N/A   Mostly Cloudy
5:52 AM 64.9 °F - 55.0 °F 70% 30.13 in 10.0 mi Calm Calm - N/A   Clear
6:52 AM 66.9 °F - 57.9 °F 73% 30.14 in 10.0 mi Calm Calm - N/A   Clear
7:52 AM 70.0 °F - 55.9 °F 61% 30.14 in 10.0 mi WNW 5.8 mph - N/A   Clear
8:52 AM 72.0 °F - 55.9 °F 57% 30.15 in 10.0 mi WNW 8.1 mph - N/A   Clear
9:52 AM 75.0 °F - 57.0 °F 53% 30.15 in 10.0 mi NW 8.1 mph - N/A   Clear
10:52 AM 78.1 °F - 55.0 °F 45% 30.15 in 10.0 mi West 6.9 mph - N/A   Clear
11:52 AM 78.1 °F - 59.0 °F 52% 30.14 in 10.0 mi SW 11.5 mph - N/A   Clear
12:52 PM 79.0 °F - 59.0 °F 50% 30.13 in 10.0 mi SW 12.7 mph - N/A   Mostly Cloudy
1:52 PM 81.0 °F 80.7 °F 55.0 °F 41% 30.12 in 10.0 mi West 9.2 mph - N/A   Scattered Clouds
2:52 PM 81.0 °F 80.7 °F 55.0 °F 41% 30.10 in 10.0 mi WNW 12.7 mph 18.4 mph N/A   Partly Cloudy
3:52 PM 81.0 °F 80.8 °F 55.9 °F 42% 30.09 in 10.0 mi NNE 3.5 mph - N/A   Mostly Cloudy
4:52 PM 81.0 °F - 52.0 °F 36% 30.08 in 10.0 mi WNW 8.1 mph - N/A   Mostly Cloudy
5:52 PM 80.1 °F 80.1 °F 55.0 °F 42% 30.08 in 10.0 mi NNW 12.7 mph - N/A   Mostly Cloudy
6:52 PM 80.1 °F 80.2 °F 55.9 °F 43% 30.10 in 10.0 mi WNW 10.4 mph - N/A   Clear
7:52 PM 77.0 °F - 55.0 °F 47% 30.12 in 10.0 mi West 6.9 mph - N/A   Clear
8:52 PM 75.0 °F - 57.0 °F 53% 30.12 in 10.0 mi West 4.6 mph - N/A   Clear
9:52 PM 73.0 °F - 57.9 °F 59% 30.12 in 10.0 mi WNW 4.6 mph - N/A   Clear
10:52 PM 73.0 °F - 57.9 °F 59% 30.12 in 10.0 mi Calm Calm - N/A   Clear
11:52 PM 71.1 °F - 60.1 °F 68% 30.12 in 10.0 mi Calm Calm - N/A   Clear